Weather History for PAHN - April, 2013

Change the Weather History Date:

Tuesday, April 2, 2013

  Actual Average Record
Temperature  
Mean Temperature 38 °F -  
Max Temperature 43 °F 39 °F 56 °F (1987)
Min Temperature 32 °F 28 °F 19 °F (2002)
Degree Days  
Heating Degree Days 27    
Moisture  
Dew Point 31 °F    
Average Humidity 80    
Maximum Humidity 92    
Minimum Humidity 62    
Precipitation  
Precipitation 0.00 in - - ()
Sea Level Pressure  
Sea Level Pressure 30.16 in    
Wind  
Wind Speed 7 mph (East)    
Max Wind Speed 13 mph    
Max Gust Speed 25 mph    
Visibility 10 miles    
Events      
Averages and records for this station are not official NWS values.
T = Trace of Precipitation, MM = Missing Value Source: NWS Daily Summary

Daily Weather History Graph

Daily Weather History Graph

Search for Another Location

Airport or City:

Trip Planner

Search our weather history database for the weather conditions in past years. The results will help you decide how hot, cold, wet, or windy it might be!

Date:

Astronomy

Apr. 02, 2013 Rise Set
Actual Time 6:24 AM AKDT 7:48 PM AKDT
Civil Twilight 5:42 AM AKDT 8:30 PM AKDT
Nautical Twilight 4:49 AM AKDT 9:23 PM AKDT
Astronomical Twilight 3:48 AM AKDT 10:25 PM AKDT
Moon 3:00 AM AKDT (4/2) 10:23 AM AKDT (4/2)
Length of Visible Light 14h 48m
Length of Day
13h 24m
Waning Gibbous, 54% of the Moon is Illuminated
Apr 2
Waning Gibbous
Apr 2
Last Quarter
Apr 10
New
Apr 18
First Quarter
Apr 25
Full

Hourly Weather History & Observations

Time (AKDT) Temp. Windchill Dew Point Humidity Pressure Visibility Wind Dir Wind Speed Gust Speed Precip Events Conditions
12:54 AM 36.0 °F 28.5 °F 32.0 °F 86% 29.97 in 10.0 mi ESE 10.4 mph 25.3 mph N/A   Mostly Cloudy
1:54 AM 36.0 °F 29.0 °F 32.0 °F 86% 29.99 in 10.0 mi East 9.2 mph - N/A   Mostly Cloudy
2:54 AM 36.0 °F 31.1 °F 32.0 °F 86% 30.02 in 10.0 mi Variable 5.8 mph - N/A   Overcast
3:54 AM 35.1 °F 29.3 °F 32.0 °F 89% 30.04 in 10.0 mi East 6.9 mph - N/A   Mostly Cloudy
4:26 AM 35.6 °F 29.2 °F 32.0 °F 87% 30.04 in 10.0 mi East 8.1 mph - N/A   Overcast
4:54 AM 36.0 °F 29.6 °F 32.0 °F 86% 30.06 in 10.0 mi East 8.1 mph - N/A   Mostly Cloudy
5:16 AM 35.6 °F 29.9 °F 32.0 °F 87% 30.05 in 10.0 mi Variable 6.9 mph - N/A   Mostly Cloudy
5:49 AM 35.6 °F 29.9 °F 32.0 °F 87% 30.06 in 10.0 mi East 6.9 mph - N/A   Overcast
5:54 AM 36.0 °F 32.1 °F 32.0 °F 86% 30.07 in 10.0 mi Variable 4.6 mph - N/A   Overcast
6:28 AM 35.6 °F 32.8 °F 30.2 °F 81% 30.07 in 10.0 mi East 3.5 mph - N/A   Scattered Clouds
6:54 AM 35.1 °F - 30.9 °F 85% 30.09 in 10.0 mi Calm Calm - N/A   Mostly Cloudy
7:54 AM 33.1 °F - 30.9 °F 92% 30.11 in 10.0 mi Calm Calm - N/A   Overcast
8:54 AM 35.1 °F 28.6 °F 30.9 °F 85% 30.13 in 10.0 mi WNW 8.1 mph - N/A   Overcast
9:49 AM 37.4 °F 31.4 °F 32.0 °F 81% 30.14 in 10.0 mi West 8.1 mph - N/A   Scattered Clouds
9:54 AM 37.0 °F 31.6 °F 32.0 °F 82% 30.15 in 10.0 mi WNW 6.9 mph - N/A   Partly Cloudy
10:54 AM 39.0 °F - 30.9 °F 73% 30.17 in 10.0 mi Calm Calm - N/A   Clear
11:54 AM 39.9 °F 35.8 °F 30.9 °F 70% 30.18 in 10.0 mi SSE 5.8 mph - N/A   Clear
12:54 PM 42.1 °F 37.7 °F 33.1 °F 70% 30.19 in 10.0 mi SE 6.9 mph - N/A   Mostly Cloudy
1:08 PM 42.8 °F 36.2 °F 33.8 °F 70% 30.18 in 10.0 mi ESE 12.7 mph 19.6 mph N/A   Mostly Cloudy
1:18 PM 42.8 °F 38.6 °F 33.8 °F 70% 30.18 in 10.0 mi ESE 6.9 mph - N/A   Scattered Clouds
1:54 PM 42.1 °F 36.1 °F 32.0 °F 67% 30.20 in 10.0 mi SE 10.4 mph - N/A   Clear
2:54 PM 43.0 °F 37.7 °F 30.9 °F 62% 30.20 in 10.0 mi ESE 9.2 mph - N/A   Clear
3:54 PM 42.1 °F 35.7 °F 32.0 °F 67% 30.20 in 10.0 mi SE 11.5 mph - N/A   Clear
4:54 PM 39.9 °F 35.1 °F 30.9 °F 70% 30.21 in 10.0 mi East 6.9 mph - N/A   Clear
5:54 PM 41.0 °F 35.2 °F 30.9 °F 67% 30.22 in 10.0 mi ESE 9.2 mph - N/A   Clear
6:54 PM 39.0 °F 34.8 °F 32.0 °F 76% 30.22 in 10.0 mi ESE 5.8 mph - N/A   Clear
7:54 PM 37.9 °F 35.5 °F 30.9 °F 76% 30.23 in 10.0 mi Variable 3.5 mph - N/A   Scattered Clouds
8:04 PM 37.4 °F 33.8 °F 30.2 °F 75% 30.22 in 10.0 mi East 4.6 mph - N/A   Mostly Cloudy
8:34 PM 37.4 °F 33.8 °F 32.0 °F 81% 30.23 in 10.0 mi East 4.6 mph - N/A   Partly Cloudy
8:54 PM 35.1 °F 31.0 °F 30.9 °F 85% 30.24 in 10.0 mi East 4.6 mph - N/A   Partly Cloudy
9:19 PM 33.8 °F - 30.2 °F 87% 30.24 in 10.0 mi Calm Calm - N/A   Mostly Cloudy
9:54 PM 37.0 °F 33.3 °F 32.0 °F 82% 30.25 in 10.0 mi ENE 4.6 mph - N/A   Overcast
10:05 PM 37.4 °F 33.8 °F 32.0 °F 81% 30.25 in 10.0 mi East 4.6 mph - N/A   Overcast
10:52 PM 33.8 °F 29.6 °F 30.2 °F 87% 30.25 in 10.0 mi WNW 4.6 mph - N/A   Overcast
10:54 PM 33.1 °F 28.7 °F 30.0 °F 89% 30.27 in 10.0 mi WNW 4.6 mph - N/A   Overcast
11:54 PM 32.0 °F 24.8 °F 28.9 °F 88% 30.27 in 10.0 mi WNW 8.1 mph - N/A   Overcast